CCA001 RCTP-ZSPD

Flight info

Callsign CCA001
Flight time 1h 16m
Altitude 37000
Route PIANO1C PIANO L3 VIOLA R596 SULEM/K0913S1100 R596 DST/K0920S1070 B221 SHZ W58 XSY
Aircraft B77W/H-SDE1E2E3FGHIJ2J3J4J5M1RWXY/LB1D1

Departure

Time 2026-05-06 13:08
Airport Taiwan Taoyuan International Airport (RCTP)

Arrival

Time 2026-05-06 14:25
Airport Shanghai Pudong International Airport (ZSPD)
Time Latitude Longitude Altitude Speed Heading
2026-05-06 12:44 25.07734 121.22800 95 ft 0 kts 140°
2026-05-06 12:44 25.07734 121.22799 95 ft 0 kts 140°
2026-05-06 12:58 25.07735 121.22798 91 ft 1 kts 140°
2026-05-06 12:58 25.07744 121.22790 92 ft 2 kts 140°
2026-05-06 12:58 25.07756 121.22779 92 ft 5 kts 140°
2026-05-06 12:58 25.07784 121.22757 93 ft 5 kts 151°
2026-05-06 12:59 25.07808 121.22746 93 ft 1 kts 208°
2026-05-06 12:59 25.07814 121.22750 93 ft 0 kts 231°
2026-05-06 13:02 25.07812 121.22748 91 ft 1 kts 231°
2026-05-06 13:02 25.07809 121.22743 91 ft 1 kts 231°
2026-05-06 13:02 25.07806 121.22740 91 ft 0 kts 231°
2026-05-06 13:03 25.07796 121.22727 94 ft 0 kts 230°
2026-05-06 13:03 25.07786 121.22714 95 ft 6 kts 230°
2026-05-06 13:03 25.07781 121.22706 95 ft 0 kts 230°
2026-05-06 13:03 25.07774 121.22694 96 ft 11 kts 242°
2026-05-06 13:04 25.07791 121.22629 94 ft 7 kts 300°
2026-05-06 13:04 25.07796 121.22575 94 ft 8 kts 251°
2026-05-06 13:04 25.07765 121.22526 95 ft 9 kts 231°
2026-05-06 13:04 25.07738 121.22489 97 ft 9 kts 229°
2026-05-06 13:05 25.07693 121.22433 97 ft 11 kts 227°
2026-05-06 13:05 25.07603 121.22322 94 ft 29 kts 229°
2026-05-06 13:05 25.07466 121.22149 97 ft 23 kts 230°
2026-05-06 13:05 25.07369 121.22024 97 ft 21 kts 230°
2026-05-06 13:06 25.07312 121.21950 97 ft 11 kts 229°
2026-05-06 13:06 25.07262 121.21886 98 ft 11 kts 229°
2026-05-06 13:06 25.07212 121.21823 98 ft 11 kts 229°
2026-05-06 13:06 25.07184 121.21748 98 ft 11 kts 284°
2026-05-06 13:07 25.07199 121.21719 99 ft 1 kts 305°
2026-05-06 13:07 25.07270 121.21647 101 ft 18 kts 327°
2026-05-06 13:07 25.07336 121.21661 99 ft 10 kts 54°
2026-05-06 13:07 25.07352 121.21683 98 ft 0 kts 48°
2026-05-06 13:08 25.07353 121.21685 98 ft 3 kts 48°
2026-05-06 13:08 25.07464 121.21823 97 ft 62 kts 49°
2026-05-06 13:08 25.08038 121.22526 127 ft 178 kts 47°
2026-05-06 13:08 25.08903 121.23559 1451 ft 181 kts 49°
2026-05-06 13:09 25.09755 121.24634 2717 ft 203 kts 52°
2026-05-06 13:09 25.10738 121.25937 3011 ft 236 kts 52°
2026-05-06 13:09 25.11868 121.27400 3609 ft 261 kts 50°
2026-05-06 13:09 25.13092 121.28959 4452 ft 274 kts 45°
2026-05-06 13:10 25.14702 121.30103 5231 ft 281 kts 12°
2026-05-06 13:10 25.16624 121.30122 6332 ft 278 kts 341°
2026-05-06 13:10 25.18287 121.29166 7323 ft 273 kts 321°
2026-05-06 13:10 25.20013 121.28209 8044 ft 290 kts 347°
2026-05-06 13:11 25.22040 121.28194 8986 ft 295 kts
2026-05-06 13:11 25.24111 121.28308 9962 ft 300 kts 359°
2026-05-06 13:11 25.26227 121.28356 10769 ft 313 kts 358°
2026-05-06 13:11 25.28504 121.28353 11071 ft 343 kts 357°
2026-05-06 13:12 25.30995 121.28316 11304 ft 373 kts 357°
2026-05-06 13:12 25.33653 121.28266 11897 ft 388 kts 357°
2026-05-06 13:12 25.36371 121.28235 12779 ft 389 kts
2026-05-06 13:12 25.39033 121.28879 13503 ft 400 kts 25°
2026-05-06 13:13 25.41267 121.30718 14305 ft 408 kts 47°
2026-05-06 13:13 25.43032 121.33189 14849 ft 413 kts 51°
2026-05-06 13:13 25.44843 121.35681 15549 ft 420 kts 49°
2026-05-06 13:13 25.46726 121.38180 16286 ft 426 kts 48°
2026-05-06 13:14 25.48659 121.40692 16990 ft 432 kts 48°
2026-05-06 13:14 25.50628 121.43223 17750 ft 436 kts 47°
2026-05-06 13:14 25.52625 121.45778 18430 ft 442 kts 47°
2026-05-06 13:14 25.54650 121.48365 19075 ft 446 kts 47°
2026-05-06 13:15 25.56692 121.50976 19739 ft 450 kts 47°
2026-05-06 13:15 25.58750 121.53609 20437 ft 453 kts 47°
2026-05-06 13:15 25.60814 121.56254 21164 ft 455 kts 47°
2026-05-06 13:15 25.62894 121.58921 21825 ft 460 kts 47°
2026-05-06 13:16 25.64993 121.61615 22440 ft 464 kts 48°
2026-05-06 13:16 25.67114 121.64338 23053 ft 469 kts 48°
2026-05-06 13:16 25.69256 121.67091 23660 ft 473 kts 48°
2026-05-06 13:16 25.71413 121.69865 24190 ft 477 kts 47°
2026-05-06 13:17 25.73586 121.72661 24677 ft 481 kts 47°
2026-05-06 13:17 25.75784 121.75490 25134 ft 487 kts 47°
2026-05-06 13:17 25.78005 121.78351 25585 ft 491 kts 47°
2026-05-06 13:17 25.80248 121.81226 26087 ft 494 kts 45°
2026-05-06 13:18 25.82712 121.83800 26563 ft 493 kts 35°
2026-05-06 13:18 25.85497 121.86025 27025 ft 495 kts 31°
2026-05-06 13:18 25.88366 121.88176 27493 ft 499 kts 31°
2026-05-06 13:18 25.91241 121.90355 27932 ft 503 kts 32°
2026-05-06 13:19 25.94117 121.92610 28371 ft 507 kts 32°
2026-05-06 13:19 25.96986 121.94922 28808 ft 511 kts 33°
2026-05-06 13:19 25.99864 121.97268 29192 ft 515 kts 33°
2026-05-06 13:19 26.02756 121.99622 29562 ft 519 kts 32°
2026-05-06 13:20 26.05690 122.01967 29933 ft 521 kts 32°
2026-05-06 13:20 26.08665 122.04296 30271 ft 523 kts 31°
2026-05-06 13:20 26.11645 122.06609 30752 ft 521 kts 31°
2026-05-06 13:20 26.14605 122.08906 31388 ft 515 kts 31°
2026-05-06 13:21 26.17523 122.11177 32072 ft 509 kts 31°
2026-05-06 13:21 26.20411 122.13431 32638 ft 506 kts 31°
2026-05-06 13:21 26.23290 122.15683 33127 ft 505 kts 31°
2026-05-06 13:21 26.26161 122.17933 33604 ft 503 kts 31°
2026-05-06 13:22 26.29016 122.20173 34096 ft 501 kts 31°
2026-05-06 13:22 26.31855 122.22403 34515 ft 499 kts 31°
2026-05-06 13:22 26.34701 122.24640 34885 ft 499 kts 31°
2026-05-06 13:22 26.37533 122.26867 35226 ft 498 kts 31°
2026-05-06 13:23 26.40372 122.29099 35584 ft 498 kts 31°
2026-05-06 13:23 26.43194 122.31321 35938 ft 497 kts 31°
2026-05-06 13:23 26.46025 122.33551 36306 ft 496 kts 31°
2026-05-06 13:23 26.48838 122.35768 36670 ft 495 kts 31°
2026-05-06 13:24 26.51649 122.37985 37022 ft 494 kts 31°
2026-05-06 13:24 26.57264 122.42415 37038 ft 499 kts 31°
2026-05-06 13:25 26.62906 122.46876 37017 ft 494 kts 31°
2026-05-06 13:25 26.68498 122.51303 37037 ft 492 kts 31°
2026-05-06 13:26 26.74080 122.55725 37040 ft 491 kts 31°
2026-05-06 13:26 26.79651 122.60143 37027 ft 491 kts 31°
2026-05-06 13:27 26.85231 122.64574 37025 ft 492 kts 31°
2026-05-06 13:27 26.90820 122.69019 37032 ft 493 kts 31°
2026-05-06 13:28 26.96416 122.73475 37032 ft 493 kts 31°
2026-05-06 13:28 27.02004 122.77932 37036 ft 494 kts 31°
2026-05-06 13:29 27.07607 122.82404 37041 ft 495 kts 31°
2026-05-06 13:29 27.13204 122.86904 37038 ft 495 kts 31°
2026-05-06 13:30 27.18879 122.91203 37022 ft 485 kts 19°
2026-05-06 13:30 27.22058 122.92266 37039 ft 473 kts
2026-05-06 13:30 27.25317 122.92390 37060 ft 465 kts 351°
2026-05-06 13:30 27.28455 122.91703 37035 ft 457 kts 337°
2026-05-06 13:31 27.31369 122.90414 37043 ft 455 kts 335°
2026-05-06 13:31 27.37292 122.87751 37028 ft 453 kts 328°
2026-05-06 13:31 27.39819 122.85699 37043 ft 447 kts 313°
2026-05-06 13:32 27.41726 122.82948 37052 ft 446 kts 300°
2026-05-06 13:32 27.43943 122.76449 37033 ft 450 kts 277°
2026-05-06 13:33 27.44005 122.69388 37047 ft 453 kts 270°
2026-05-06 13:33 27.43890 122.62340 37131 ft 454 kts 271°
2026-05-06 13:34 27.43875 122.55227 37137 ft 455 kts 272°
2026-05-06 13:34 27.43894 122.48100 37139 ft 455 kts 272°
2026-05-06 13:35 27.44141 122.40993 37142 ft 453 kts 277°
2026-05-06 13:35 27.45777 122.34239 37140 ft 449 kts 301°
2026-05-06 13:35 27.47672 122.31457 37039 ft 448 kts 312°
2026-05-06 13:36 27.49993 122.29105 36721 ft 450 kts 321°
2026-05-06 13:36 27.52708 122.27317 36252 ft 457 kts 335°
2026-05-06 13:36 27.55722 122.26094 35728 ft 463 kts 338°
2026-05-06 13:36 27.58792 122.24956 35271 ft 466 kts 339°
2026-05-06 13:37 27.61882 122.23836 34834 ft 468 kts 339°
2026-05-06 13:37 27.64977 122.22704 34436 ft 468 kts 338°
2026-05-06 13:37 27.68074 122.21550 34029 ft 469 kts 338°
2026-05-06 13:37 27.71173 122.20374 33540 ft 470 kts 338°
2026-05-06 13:38 27.74274 122.19179 33229 ft 471 kts 337°
2026-05-06 13:38 27.80482 122.16762 33146 ft 472 kts 337°
2026-05-06 13:39 27.86696 122.14333 33143 ft 473 kts 337°
2026-05-06 13:39 27.92925 122.11899 33141 ft 473 kts 337°
2026-05-06 13:40 27.99149 122.09465 33158 ft 473 kts 337°
2026-05-06 13:40 28.05368 122.07031 33146 ft 473 kts 337°
2026-05-06 13:41 28.11599 122.04589 33144 ft 473 kts 337°
2026-05-06 13:41 28.17777 122.02165 33147 ft 473 kts 337°
2026-05-06 13:42 28.23992 121.99723 33143 ft 473 kts 337°
2026-05-06 13:42 28.30210 121.97277 33150 ft 473 kts 337°
2026-05-06 13:43 28.36429 121.94827 33146 ft 473 kts 337°
2026-05-06 13:43 28.42640 121.92377 33147 ft 473 kts 337°
2026-05-06 13:44 28.48842 121.89928 33129 ft 468 kts 337°
2026-05-06 13:44 28.54872 121.87552 32985 ft 450 kts 337°
2026-05-06 13:44 28.57870 121.86363 33004 ft 461 kts 337°
2026-05-06 13:45 28.60907 121.85156 32994 ft 462 kts 337°
2026-05-06 13:45 28.66877 121.82794 32350 ft 445 kts 336°
2026-05-06 13:45 28.69758 121.81656 32277 ft 431 kts 336°
2026-05-06 13:46 28.72544 121.80555 32189 ft 417 kts 336°
2026-05-06 13:46 28.75249 121.79484 32057 ft 406 kts 336°
2026-05-06 13:46 28.77878 121.78440 31852 ft 397 kts 335°
2026-05-06 13:46 28.80471 121.77408 31504 ft 393 kts 335°
2026-05-06 13:47 28.83053 121.76377 30994 ft 393 kts 335°
2026-05-06 13:47 28.85629 121.75349 30458 ft 387 kts 335°
2026-05-06 13:47 28.88158 121.74342 29601 ft 384 kts 334°
2026-05-06 13:47 28.90643 121.73350 28688 ft 383 kts 335°
2026-05-06 13:48 28.93191 121.72331 27807 ft 385 kts 335°
2026-05-06 13:48 28.95713 121.71323 27199 ft 380 kts 335°
2026-05-06 13:48 28.98154 121.70359 26547 ft 372 kts 336°
2026-05-06 13:48 29.00619 121.69421 25801 ft 368 kts 336°
2026-05-06 13:49 29.03013 121.68466 24981 ft 369 kts 335°
2026-05-06 13:49 29.05431 121.67483 24232 ft 370 kts 336°
2026-05-06 13:49 29.07850 121.66501 23589 ft 367 kts 336°
2026-05-06 13:49 29.10240 121.65535 22935 ft 362 kts 336°
2026-05-06 13:50 29.12601 121.64584 22303 ft 357 kts 336°
2026-05-06 13:50 29.14936 121.63646 21665 ft 353 kts 336°
2026-05-06 13:50 29.17242 121.62720 20996 ft 350 kts 336°
2026-05-06 13:50 29.19530 121.61802 20347 ft 347 kts 336°
2026-05-06 13:51 29.21795 121.60893 19717 ft 344 kts 337°
2026-05-06 13:51 29.24042 121.59991 19118 ft 341 kts 337°
2026-05-06 13:51 29.26269 121.59097 18518 ft 338 kts 337°
2026-05-06 13:51 29.28481 121.58209 17877 ft 335 kts 337°
2026-05-06 13:52 29.30658 121.57334 17222 ft 332 kts 337°
2026-05-06 13:52 29.32105 121.56752 16980 ft 332 kts 338°
2026-05-06 13:52 29.34309 121.55864 16845 ft 337 kts 338°
2026-05-06 13:52 29.36511 121.54977 16729 ft 334 kts 338°
2026-05-06 13:53 29.38688 121.54102 16714 ft 329 kts 338°
2026-05-06 13:53 29.40843 121.53236 16722 ft 328 kts 337°
2026-05-06 13:53 29.42999 121.52367 16722 ft 330 kts 337°
2026-05-06 13:53 29.45176 121.51488 16730 ft 332 kts 337°
2026-05-06 13:54 29.47359 121.50606 16721 ft 333 kts 337°
2026-05-06 13:54 29.49545 121.49723 16721 ft 334 kts 337°
2026-05-06 13:54 29.51746 121.48833 16714 ft 335 kts 337°
2026-05-06 13:54 29.53935 121.47948 16697 ft 335 kts 337°
2026-05-06 13:55 29.56129 121.47061 16698 ft 335 kts 337°
2026-05-06 13:55 29.58327 121.46170 16703 ft 334 kts 337°
2026-05-06 13:55 29.60516 121.45287 16699 ft 334 kts 337°
2026-05-06 13:55 29.62706 121.44397 16702 ft 333 kts 337°
2026-05-06 13:56 29.64890 121.43509 16696 ft 333 kts 337°
2026-05-06 13:56 29.67071 121.42624 16693 ft 332 kts 337°
2026-05-06 13:56 29.69249 121.41741 16696 ft 332 kts 337°
2026-05-06 13:56 29.71429 121.40856 16693 ft 332 kts 337°
2026-05-06 13:57 29.73604 121.39973 16693 ft 331 kts 337°
2026-05-06 13:57 29.75772 121.39092 16541 ft 330 kts 337°
2026-05-06 13:57 29.77933 121.38213 16218 ft 328 kts 337°
2026-05-06 13:57 29.80082 121.37339 15835 ft 327 kts 337°
2026-05-06 13:58 29.82228 121.36465 15446 ft 327 kts 338°
2026-05-06 13:58 29.84364 121.35595 15082 ft 326 kts 338°
2026-05-06 13:58 29.86472 121.34737 14740 ft 324 kts 338°
2026-05-06 13:58 29.88623 121.34030 14325 ft 323 kts 353°
2026-05-06 13:59 29.90875 121.34284 13866 ft 329 kts 17°
2026-05-06 13:59 29.92935 121.35391 13465 ft 326 kts 27°
2026-05-06 13:59 29.94921 121.36643 13104 ft 325 kts 28°
2026-05-06 13:59 29.96890 121.37906 12774 ft 323 kts 28°
2026-05-06 14:00 29.98843 121.39157 12430 ft 320 kts 27°
2026-05-06 14:00 30.00783 121.40391 12104 ft 318 kts 27°
2026-05-06 14:00 30.02717 121.41616 11812 ft 315 kts 27°
2026-05-06 14:00 30.04641 121.42829 11802 ft 316 kts 27°
2026-05-06 14:01 30.06585 121.44050 11800 ft 318 kts 27°
2026-05-06 14:01 30.08528 121.45271 11787 ft 318 kts 27°
2026-05-06 14:01 30.10463 121.46486 11755 ft 316 kts 27°
2026-05-06 14:01 30.12387 121.47695 11556 ft 314 kts 26°
2026-05-06 14:02 30.14305 121.48899 11330 ft 314 kts 27°
2026-05-06 14:02 30.16224 121.50105 11062 ft 314 kts 26°
2026-05-06 14:02 30.18142 121.51309 10857 ft 313 kts 26°
2026-05-06 14:02 30.20049 121.52507 10644 ft 312 kts 27°
2026-05-06 14:03 30.21950 121.53703 10481 ft 309 kts 26°
2026-05-06 14:03 30.23838 121.54891 10261 ft 308 kts 27°
2026-05-06 14:03 30.25715 121.56073 10080 ft 306 kts 27°
2026-05-06 14:03 30.27577 121.57272 9897 ft 305 kts 28°
2026-05-06 14:04 30.29409 121.58461 9854 ft 302 kts 27°
2026-05-06 14:04 30.31253 121.59657 9807 ft 305 kts 27°
2026-05-06 14:04 30.33107 121.60859 9788 ft 307 kts 26°
2026-05-06 14:04 30.34975 121.62067 9802 ft 307 kts 27°
2026-05-06 14:05 30.36845 121.63281 9804 ft 307 kts 26°
2026-05-06 14:05 30.38687 121.64540 9811 ft 308 kts 29°
2026-05-06 14:05 30.40519 121.65833 9796 ft 309 kts 28°
2026-05-06 14:05 30.42353 121.67132 9807 ft 309 kts 30°
2026-05-06 14:06 30.44187 121.68429 9799 ft 309 kts 28°
2026-05-06 14:06 30.46017 121.69722 9809 ft 308 kts 30°
2026-05-06 14:06 30.47846 121.71013 9795 ft 308 kts 28°
2026-05-06 14:06 30.49671 121.72299 9808 ft 308 kts 28°
2026-05-06 14:07 30.51503 121.73588 9810 ft 308 kts 28°
2026-05-06 14:07 30.53334 121.74876 9829 ft 308 kts 29°
2026-05-06 14:07 30.55162 121.76163 9817 ft 308 kts 30°
2026-05-06 14:07 30.57007 121.77425 9808 ft 304 kts 24°
2026-05-06 14:08 30.58988 121.78185 9831 ft 300 kts 11°
2026-05-06 14:08 30.61000 121.78701 9813 ft 301 kts
2026-05-06 14:08 30.63081 121.79223 9818 ft 303 kts
2026-05-06 14:08 30.65121 121.79743 9820 ft 305 kts 10°
2026-05-06 14:09 30.67224 121.80289 9810 ft 306 kts 11°
2026-05-06 14:09 30.69301 121.80842 9826 ft 307 kts 10°
2026-05-06 14:09 30.71352 121.81389 9820 ft 307 kts 11°
2026-05-06 14:09 30.73436 121.81953 9805 ft 306 kts 11°
2026-05-06 14:10 30.75505 121.82516 9803 ft 306 kts 10°
2026-05-06 14:10 30.77570 121.83077 9681 ft 304 kts 12°
2026-05-06 14:10 30.79630 121.83638 9371 ft 303 kts 11°
2026-05-06 14:10 30.81679 121.84197 9043 ft 301 kts 10°
2026-05-06 14:11 30.83722 121.84753 8687 ft 301 kts 11°
2026-05-06 14:11 30.85745 121.85304 8411 ft 298 kts 11°
2026-05-06 14:11 30.87768 121.85857 8028 ft 299 kts 11°
2026-05-06 14:11 30.89785 121.86407 7774 ft 295 kts 12°
2026-05-06 14:12 30.91773 121.86951 7495 ft 293 kts 11°
2026-05-06 14:12 30.93725 121.87603 7077 ft 293 kts 22°
2026-05-06 14:12 30.95516 121.88724 6825 ft 290 kts 30°
2026-05-06 14:12 30.97237 121.89970 6477 ft 291 kts 31°
2026-05-06 14:13 30.98964 121.91227 6113 ft 292 kts 31°
2026-05-06 14:13 31.00678 121.92445 5966 ft 290 kts 29°
2026-05-06 14:13 31.02420 121.93655 5927 ft 292 kts 30°
2026-05-06 14:13 31.04172 121.94862 5916 ft 294 kts 30°
2026-05-06 14:14 31.05930 121.96068 5918 ft 294 kts 29°
2026-05-06 14:14 31.07784 121.97003 5928 ft 290 kts
2026-05-06 14:14 31.09782 121.96928 5936 ft 289 kts 343°
2026-05-06 14:14 31.11708 121.96250 5929 ft 291 kts 339°
2026-05-06 14:15 31.16967 121.94223 5913 ft 283 kts 339°
2026-05-06 14:15 31.18841 121.93503 5916 ft 284 kts 339°
2026-05-06 14:16 31.20714 121.92788 5906 ft 277 kts 339°
2026-05-06 14:16 31.22457 121.92133 5853 ft 250 kts 339°
2026-05-06 14:16 31.24062 121.91530 5744 ft 236 kts 338°
2026-05-06 14:16 31.25582 121.90952 5639 ft 224 kts 339°
2026-05-06 14:17 31.27027 121.90407 5511 ft 213 kts 340°
2026-05-06 14:17 31.28406 121.89888 5305 ft 205 kts 338°
2026-05-06 14:17 31.29751 121.89378 4990 ft 202 kts 340°
2026-05-06 14:17 31.31081 121.88877 4674 ft 200 kts 338°
2026-05-06 14:18 31.32411 121.88372 4289 ft 202 kts 338°
2026-05-06 14:18 31.33748 121.87865 3997 ft 200 kts 338°
2026-05-06 14:18 31.35090 121.87358 3635 ft 204 kts 336°
2026-05-06 14:18 31.36214 121.86486 3104 ft 191 kts 296°
2026-05-06 14:19 31.36446 121.85024 2471 ft 183 kts 249°
2026-05-06 14:19 31.36014 121.83600 2371 ft 193 kts 244°
2026-05-06 14:19 31.35551 121.82123 2185 ft 191 kts 244°
2026-05-06 14:19 31.35073 121.80713 2033 ft 183 kts 244°
2026-05-06 14:20 31.34629 121.79344 2027 ft 180 kts 244°
2026-05-06 14:20 31.34180 121.77975 2021 ft 184 kts 244°
2026-05-06 14:20 31.33623 121.76623 1981 ft 180 kts 223°
2026-05-06 14:20 31.32573 121.75992 2017 ft 175 kts 182°
2026-05-06 14:21 31.31361 121.76156 2031 ft 178 kts 169°
2026-05-06 14:21 31.30140 121.76430 2037 ft 177 kts 169°
2026-05-06 14:21 31.28951 121.76745 2012 ft 172 kts 166°
2026-05-06 14:21 31.27844 121.77126 1976 ft 158 kts 163°
2026-05-06 14:22 31.26833 121.77502 1984 ft 149 kts 163°
2026-05-06 14:22 31.25844 121.77876 2014 ft 150 kts 163°
2026-05-06 14:22 31.24834 121.78259 1819 ft 155 kts 163°
2026-05-06 14:22 31.23830 121.78641 1622 ft 150 kts 163°
2026-05-06 14:23 31.22857 121.79010 1425 ft 147 kts 163°
2026-05-06 14:23 31.21870 121.79385 1244 ft 150 kts 162°
2026-05-06 14:23 31.20879 121.79761 1040 ft 150 kts 161°
2026-05-06 14:23 31.19905 121.80132 834 ft 143 kts 162°
2026-05-06 14:24 31.19022 121.80466 662 ft 127 kts 160°
2026-05-06 14:24 31.18112 121.80812 500 ft 144 kts 160°
2026-05-06 14:24 31.17187 121.81163 253 ft 141 kts 161°
2026-05-06 14:24 31.16279 121.81507 117 ft 135 kts 160°
2026-05-06 14:25 31.15374 121.81859 43 ft 134 kts 160°
2026-05-06 14:25 31.14595 121.82175 32 ft 102 kts 165°
2026-05-06 14:25 31.14073 121.82352 30 ft 48 kts 161°
2026-05-06 14:25 31.13812 121.82439 27 ft 32 kts 172°
2026-05-06 14:26 31.13628 121.82423 27 ft 17 kts 189°
2026-05-06 14:26 31.13557 121.82364 27 ft 7 kts 271°
2026-05-06 14:26 31.13595 121.82326 27 ft 8 kts 338°
2026-05-06 14:26 31.13648 121.82304 27 ft 8 kts 342°
2026-05-06 14:27 31.13673 121.82255 27 ft 9 kts 251°
2026-05-06 14:27 31.13654 121.82188 28 ft 9 kts 252°
2026-05-06 14:27 31.13634 121.82117 28 ft 10 kts 252°
2026-05-06 14:27 31.13613 121.82038 27 ft 11 kts 252°
2026-05-06 14:28 31.13589 121.81947 26 ft 12 kts 252°
2026-05-06 14:28 31.13563 121.81852 27 ft 12 kts 250°
2026-05-06 14:28 31.13535 121.81758 27 ft 12 kts 251°
2026-05-06 14:28 31.13508 121.81664 27 ft 12 kts 251°
2026-05-06 14:29 31.13486 121.81568 27 ft 11 kts 271°
2026-05-06 14:29 31.13489 121.81558 27 ft 3 kts 292°
2026-05-06 14:29 31.13519 121.81533 27 ft 8 kts 334°
2026-05-06 14:29 31.13574 121.81510 27 ft 9 kts 343°
2026-05-06 14:30 31.13621 121.81469 27 ft 9 kts 280°
2026-05-06 14:30 31.13619 121.81461 27 ft 2 kts 252°
2026-05-06 14:30 31.13607 121.81438 27 ft 4 kts 246°
2026-05-06 14:30 31.13596 121.81401 27 ft 5 kts 252°
2026-05-06 14:31 31.13595 121.81397 27 ft 0 kts 252°